Weather Roundup
Issued by NWS Chicago, IL

Home | Current Version | Previous Version | Text Only | Print | Product List | Glossary Off
Versions: 1 2 3 4 5 6 7 8 9 10 11 12 13 14 15 16 17 18 19 20 21 22 23 24 25 26 27 28 29 30 31 32 33 34 35 36 37 38 39 40 41 42 43 44 45 46 47 48 49 50

000
NZUS59 KLOT 291110
HRRLOT

CHICAGO AREA WEATHER ROUNDUP
NATIONAL WEATHER SERVICE CHICAGO/ROMEOVILLE IL
500 AM CST THU JAN 29 2015

NOTE: "FAIR" INDICATES FEW OR NO CLOUDS BELOW 12,000 FEET WITH NO
SIGNIFICANT WEATHER AND/OR OBSTRUCTIONS TO VISIBILITY.

* THESE STATIONS ARE NOT UNDER NWS QUALITY CONTROL. THEY ALSO MAY NOT
  REPORT WEATHER SUCH AS PRECIPITATION OR FOG.

ILZ005-006-012>014-019>023-291200-
NORTHEAST ILLINOIS

CITY           SKY/WX    TMP DP  RH WIND       PRES   REMARKS
OHARE          PTCLDY    32  26  78 S5        29.68F WCI  27
MIDWAY         PTCLDY    37  28  70 S6        29.69F
AURORA         CLEAR     32  26  78 CALM      29.69F
LANSING*       MOCLDY    33  28  80 S6        29.70F WCI  28
JOLIET*        CLEAR     31  27  84 CALM      29.70S
WAUKEGAN       CLOUDY    32  27  81 N3        29.70F
DUPAGE AIRPORT CLEAR     27  24  89 CALM      29.67F
WHEELING       MOCLDY    33  26  75 CALM      29.71F
KANKAKEE*      CLEAR     35  31  85 S9        29.69F WCI  28
MORRIS*        CLEAR     32  30  90 SE3       29.68S
LEWIS AIRPORT* CLEAR     32  27  82 S6        29.68F WCI  26
NORTHERLY IS     N/A     37  27  67 S6          N/A
$$

WIZ051-052-058>065-066-070>072-291200-
SOUTHEAST WISCONSIN

CITY           SKY/WX    TMP DP  RH WIND       PRES   REMARKS
MILWAUKEE      CLOUDY    33  26  75 CALM      29.72F
KENOSHA*       CLOUDY    32  27  81 N3        29.70F
RACINE*        CLOUDY    33  27  78 CALM      29.73F
BURLINGTON     CLOUDY    31  25  80 N5        29.71F WCI  26
WEST BEND      CLOUDY    30  27  86 CALM      29.73S
$$

INZ001>003-010>013-019-020-291200-
NORTHWEST INDIANA

CITY           SKY/WX    TMP DP  RH WIND       PRES   REMARKS
GARY*          MOCLDY    37  23  56 S6        29.70F
MICHIGAN CITY* NOT AVBL
RENSSELAER*    NOT AVBL
VALPARAISO     CLOUDY    34  25  69 S7        29.71F WCI  28
$$

LMZ740>746-291200-
SOUTHERN LAKE MICHIGAN

STATION/POSITION TIME  SKY/WX   TEMP WIND        PRES    VSBY
                                AIR  DIR/SP/G
                 (UTC)          (F)  (DEG/KT/KT) (MB)    (MI)
HARRISON CRIB    1100            36  170/ 11/ 12   N/A
BURNHAM HARBOR   1100            37  200/  4/  7   N/A
CALUMET HARBOR   1100            36  180/  2/  5   N/A
BURNS HARBOR     NOT AVBL
MICHIGAN CITY    1100            37  150/ 17/ 22   N/A
$$

ABBREVIATIONS USED IN REMARKS
   TC - TEMPERATURE IN CELSIUS
  WCI - WIND CHILL INDEX
   HX - HEAT INDEX
  VSB - VISIBILITY
$$



USA.gov is the U.S. government's official web portal to all federal, state and local government web resources and services.